Location: Unspecified
(50.7693°N, 0.0000°E)
Time: 14:16:40
(UTC+00:00)

A-11 Canister half - Pass Details

Date: 18 June 2019
Orbit: 1526 x 1682 km, 47.3° (Epoch: 24 August)

Event Time Altitude Azimuth Distance (km) Brightness Sun altitude
Rises 06:14:29 0° 233° (SW) 4,716 11.0 20.0°
Reaches altitude 10° 06:17:38 10° 229° (SW) 3,719 10.6 20.5°
Maximum altitude 06:26:38 55° 156° (SSE) 1,792 9.8 21.9°
Drops below altitude 10° 06:35:35 10° 82° (E) 3,701 13.1 23.2°
Sets 06:38:42 0° 78° (ENE) 4,692 13.0 23.7°
